www.pogodaiklimat.ru

Погода и климат >> Архив погоды >> Аргентина >> Buenos Aires


ПОГОДА в Buenos Aires

  • Прогноз погоды в Buenos Aires
  • Монитор погоды в Buenos Aires
  • Климат города

АРХИВ ПОГОДЫ в Buenos Aires

Время (UTC), дата Ветер
(напр.,м/с)
 
Видим.   Явления Облачность Т
(С)
Тd
(С)
f
(%)
Тe
(С)
Тes
(С)
Комфортность P
(гПа)
Po
(гПа)
Тmin
(С)
Tmax
(С)
R
(мм)
R24
(мм)
S
(см)
12 16.06 СЗ 3 10 км в посл. час дождь 10/10 300 м
[St]
+19.6 +18.0 90 +22 +22 комфорт 1006.5 1003.6 +17.3 +19.8 0.1
15 16.06 СЗ 4 10 км 9/1 300 м
[St Ac cast Cs]
+22.0 +18.5 81 +27 +29 душно 1005.6 1002.6
18 16.06 СЗ 3 10 км 10/0
[Ac As Cs]
+24.6 +19.4 73 +30 +32 очень
душно
1002.9 1000.0
21 16.06 СЗ 3 10 км 10/10 300 м
[Frnb]
+22.8 +19.4 81 +29 +29 очень
душно
1002.8 999.8
00 17.06 СЗ 3 10 км в посл. час дождь 10/10 450 м
[Sc]
+22.6 +19.2 81 +29 +29 очень
душно
1003.5 1000.6 +19.6 +24.6 0.0
03 17.06 СЗ 3 10 км 10/0
[Ac As]
+21.8 +18.5 82 +27 +27 душно 1003.3 1000.4
06 17.06 СЗ 1 10 км 10/3 450 м
[Sc Ac As Cs]
+20.7 +18.5 87 +26 +26 душно 1002.4 999.4
09 17.06 СЗ 2 10 км 10/5 450 м
[Sc Ac As]
+19.8 +18.2 90 +23 +23 комфорт 1000.8 997.8
12 17.06 СЗ 2 10 км 5/0
[Ac As Cs]
+19.0 +17.7 92 +21 +22 комфорт 1000.8 997.8 +18.5 +22.7 0.0
15 17.06 З 4 10 км 10/10 540 м
[Sc]
+22.4 +19.6 84 +28 +28 душно 1000.7 997.8
18 17.06 ЮЗ 4 10 км в посл. час морось 4/3 540 м
[St Ac As]
+21.7 +19.5 87 +27 +29 душно 1001.5 998.6 0.1
21 17.06 Ю 3 10 км ясно +17.2 +6.1 48 +17 +17 1005.9 1003.0
00 18.06 Ю 4 10 км ясно +12.7 +1.0 45 +11 +11 1010.2 1007.2 +12.7 +22.8
03 18.06 Ю 2 10 км 1/0
[Ac As]
+10.6 +0.1 48 +10 +10 1011.0 1008.0
06 18.06 Ю 2 10 км ясно +9.9 -0.6 48 +9 +9 1012.9 1009.8
09 18.06 ЮЗ 5 10 км 8/0
[Cs]
+7.5 -0.8 56 +4 +4 1012.8 1009.8
12 18.06 ЮЗ 6 10 км 1/1 450 м
[St]
+5.5 +1.2 74 +1 +1 1014.6 1011.4 +5.4 +12.7 0.1
15 18.06 Ю 5 10 км 1/1 450 м
[St]
+9.8 +1.1 55 +7 +10 1017.0 1013.8
18 18.06 ЮЗ 5 10 км 4/4 450 м
[Sc]
+10.8 +4.7 66 +8 +9 1017.7 1014.6
21 18.06 ЮЗ 4 10 км 5/3 450 м
[Sc Ac As Cs]
+9.5 +3.3 65 +7 +7 1020.4 1017.3
00 19.06 ЮЗ 5 10 км 6/6 750 м
[Sc]
+8.2 +2.5 67 +5 +5 1023.2 1020.1 +5.5 +11.5
03 19.06 ЮЗ 4 10 км ясно +6.1 +1.9 74 +3 +3 1024.9 1021.8
06 19.06 ЮЗ 3 10 км ясно +4.5 +0.6 76 +1 +1 1025.6 1022.5
09 19.06 ЮЗ 2 10 км ясно +3.1 -0.4 78 0 0 1024.8 1021.7
12 19.06 ЮЗ 2 10 км ясно +2.7 -1.5 74 -0 0 1026.6 1023.6 +2.3 +8.2
15 19.06 ЮЗ 2 10 км ясно +10.1 -2.8 40 +9 +15 1027.3 1024.2
18 19.06 ЮЗ 3 10 км ясно +12.5 -2.1 36 +12 +15 1025.5 1022.4
21 19.06 ЮЗ 1 10 км 4/0
[Cs]
+9.4 -2.8 42 +10 +10 1025.6 1022.5
00 20.06 З 1 10 км ясно +5.6 -0.7 64 +5 +5 1026.6 1023.4 +2.7 +13.1
03 20.06 штиль 0 10 км ясно +3.6 -0.1 77 +3 +3 1027.3 1024.2
06 20.06 З 1 10 км 9/0
[Cs]
+2.8 +2.3 97 +2 +2 1027.7 1024.6
09 20.06 штиль 0 10 км 9/0
[Cs]
+3.0 -0.2 79 +2 +2 1027.2 1024.1
12 20.06 штиль 0 10 км 6/0
[Ac trans]
+3.6 +0.5 80 +3 +3 1028.6 1025.4 +2.0 +5.6
15 20.06 СЗ 2 10 км ясно +12.2 +0.2 44 +12 +18 1028.7 1025.6
18 20.06 С 3 10 км 1/0
[Cs]
+12.6 +3.2 53 +12 +15 1025.7 1022.6
21 20.06 С 2 10 км 6/0
[Cs]
+11.0 +4.4 64 +10 +10 1024.2 1021.2
00 21.06 СЗ 3 10 км 9/0
[Cs]
+10.8 -0.3 46 +9 +9 1023.9 1020.8 +3.6 +13.6
03 21.06 СЗ 4 10 км 9/0
[Cs]
+10.7 +2.9 59 +9 +9 1023.7 1020.6
06 21.06 СЗ 4 10 км 9/0
[Ac As Cs]
+10.0 +3.7 65 +8 +8 1023.1 1020.0
09 21.06 С 3 10 км ясно +9.5 +3.3 65 +7 +7 1021.7 1018.6
12 21.06 СЗ 2 10 км 8/0
[As trans Cs]
+9.0 +3.0 66 +8 +8 1022.8 1019.7 +8.0 +11.0
15 21.06 С 1 10 км 9/5 540 м
[Sc Ac As Cs]
+9.8 +4.7 71 +9 +11 1022.3 1019.2
18 21.06 С 2 10 км 6/0
[As trans Cs]
+12.5 +6.9 69 +12 +16 1018.9 1015.8
21 21.06 СЗ 1 10 км 4/0
[As trans Cs]
+12.3 +7.6 73 +12 +12 1017.1 1014.1
00 22.06 С 3 10 км ясно +11.8 +9.0 83 +10 +10 1016.8 1013.7 +9.0 +13.4
03 22.06 С 2 10 км ясно +12.1 +10.8 92 +11 +11 1015.2 1012.2
06 22.06 СЗ 4 10 км 10/0
[Ac As]
+13.2 +10.7 85 +11 +11 1013.0 1010.0
09 22.06 СЗ 3 10 км 10/0
[Ac As]
+13.3 +12.2 93 +12 +12 1011.8 1008.8
12 22.06 С 3 10 км 10/10 450 м
[St]
+14.1 +13.0 93 +13 +13 1012.0 1009.0 +11.8 +14.1
15 22.06 СЗ 3 10 км 10/9 450 м
[St Ac As]
+16.7 +14.8 89 +17 +17 1011.8 1008.8
18 22.06 С 3 10 км 9/1 480 м
[Sc Ac As Cs]
+21.1 +16.4 75 +25 +26 комфорт 1009.1 1006.1
21 22.06 С 2 10 км 8/0
[Cs]
+19.8 +16.5 81 +23 +23 комфорт 1009.1 1006.1
00 23.06 С 2 10 км 6/0
[Cs]
+19.1 +16.1 83 +21 +21 комфорт 1010.1 1007.0 +14.1 +21.9
03 23.06 СЗ 2 10 км 8/0
[Cs]
+18.5 +15.8 84 +20 +20 1011.0 1008.0
06 23.06 С 1 10 км 9/0
[Cs]
+16.9 +15.0 89 +18 +18 1011.6 1008.6
09 23.06 СЗ 2 10 км 10/4 450 м
[St Cs]
+16.7 +15.2 91 +17 +17 1011.4 1008.4

 

Местоположение метеостанции Buenos Aires (Аргентина): широта -34.58 долгота -58.48 высота над уровнем моря 25 м.

В архиве по умолчанию представлена погода в Buenos Aires за последнюю неделю. Архивные данные за месяц целиком и за предыдущие месяцы, начиная с января 2011 года, Вы можете получить, выбрав интересующий диапазон дат из раскрывающегося списка и нажав кнопку "Ввод!".

Внимание! Время в таблицах - всемирное. Для получения местного времени необходимо прибавить поправку, которая в Buenos Aires равна -3 ч.

Смотрите также архив погоды в соседних городах и на ближайших метеорологических станциях:

Погода в Buenos Aires Aeropuerto (Аргентина) (7 км)
Погода в Ezeiza (Аргентина) (26 км)
Погода в Colonia (Уругвай) (61 км)
Погода в La Plata (Аргентина) (68 км)
Погода в Mercedes (Уругвай) (153 км)
Погода в Las Flores (Аргентина) (175 км)
Погода в Gualeguaychu (Аргентина) (176 км)
Погода в Melilla (Уругвай) (205 км)
Погода в Dolores (Аргентина) (205 км)
Погода в Prado (Уругвай) (211 км)

Пояснения к столбцам:

Ветер - указаны скорость ветра в м/с - средняя за 10 мин, порывы в срок и между сроками (в фигурных скобках) и направление, откуда дует ветер: С - северный, СВ - северо-восточный, В - восточный, ЮВ - юго-восточный, Ю - южный, ЮЗ - юго-западный, З - западный, СЗ - северо-западный.
Видимость - горизонтальная дальность видимости в метрах или километрах. При видимости от 1 до 10 км при отсутствии осадков обычно наблюдается дымка, при ухудшении видимости до 1 км и менее - туман. В сухую погоду видимость может ухудшаться дымом, пылью или мглою.
Явления - указаны атмосферные явления, наблюдавшиеся в срок или в последний час перед сроком; фигурными скобками обозначены явления, наблюдавшиеся между сроками (за 1-3 часа до срока); квадратными скобками обозначены град или гололедные отложения с указанием их диаметра в мм.
Облачность - указаны через наклонную черту общая и нижняя облачность в баллах и высота нижней границы облаков в метрах; квадратными скобками обозначены формы облаков: Ci - перистые, Cs - перисто-слоистые, Cc - перисто-кучевые, Ac - высококучевые, As - высокослоистые, Sc - слоисто-кучевые, Ns - слоисто-дождевые, Cu - кучевые, Cb - кучево-дождевые. Подробнее классификацию облаков см. в Атласе облаков (PDF).
T - Температура воздуха - температура, измеренная на высоте 2 м над землей.
Td - Температура точки росы - температура, при понижении до которой содержащийся в воздухе водяной пар достигнет насыщения.
f - Относительная влажность воздуха - влажноcть воздуха, измеренная на высоте 2 м над землей.
Te - Эффективная температура - температура, которую ощущает одетый по сезону человек в тени. Характеристика душности погоды. При расчете учитывается влияние влажности воздуха и скорости ветра на теплоощущения человека.
Tes - Эффективная температура на солнце - температура, которую ощущает человек, с поправкой на солнечный нагрев. Характеристика знойности погоды. Зависит от высоты солнца над горизонтом, облачности и скорости ветра. Ночью, в пасмурную погоду, а также при ветре 12 м/с и более поправка равна нулю.
P - Атмосферное давление - приведенное к уровню моря атмосферное давление.
Po - Атмосферное давление - измеренное на уровне метеостанции атмосферное давление.
Tmin - Минимальная температура - минимум температуры воздуха на высоте 2 м над землей.
Tmax - Максимальная температура - максимум температуры воздуха на высоте 2 м над землей.
R - Количество осадков - Количество выпавших осадков за период времени, мм. При наведении курсора мыши на число - период времени, за который выпало указанное количество осадков.
R24 - Количество осадков - Количество выпавших осадков за 24 часа, мм.
S - Снежный покров - Высота снежного покрова, см. При наведении курсора мыши на число - состояние снежного покрова и степень покрытия местности в баллах.